sat.trackr.live / text

‹ back to catalog

STARLINK-6337

NORAD 56528 · 2023-065AB

PAYLOAD ACTIVE UNKNOWN

§ Identity

Operator
Country
US
Launch date
2023-05-14
Launch site
AFETR
Launch vehicle
Mass (kg)
RCS (m²)

Purposes: comms

External: N2YO · Heavens-Above · Gunter

§ Orbital elements

Epoch: 2026-09-20T02:51:06.238944Z

Period
94.27 min
Inclination
43.0004°
Eccentricity
0.0000774
Mean motion
15.27576247 rev/d
Perigee alt
482.5 km
Apogee alt
483.6 km
Semi-major
6,861.2 km
B*
1.1039e-5
RAAN
197.9670°
Arg perigee
241.4202°
Mean anomaly
118.6572°
Rev number
18,629

§ Raw data

STARLINK-63371 56528U 23065AB  26263.11882221  .00000042  00000+0  11039-4 0  99992 56528  43.0004 197.9670 0000774 241.4202 118.6572 15.27576247186293

JSON: /api/v1/satellites/56528 · /tle

For live sub-satellite position, see the globe view (requires WebGL).

§ Visibility from observer

Set your observer location to see the next 7 days of passes ≥ 10°. The values pass through the URL so the page stays shareable.

No JS? Fill the form by hand. The geolocation button needs JavaScript.